Terminal Aerodrome Forecast
Issued by NWS

Home | Current Version | Previous Version | Graphics & Text | Print | Product List | Glossary On
Versions: 1 2 3 4 5 6 7 8 9 10 11 12 13 14 15 16 17 18 19 20 21 22 23 24 25 26 27 28
000
FTUS41 KCLE 011300 AAA
TAFFDY
TAF AMD
KFDY 011319Z 0113/0212 VRB03KT 1 1/2SM -SN OVC025
      TEMPO 0113/0115 3/4SM -SN OVC010
     FM011500 VRB03KT 1SM -SN OVC007
     FM012200 26008KT P6SM OVC025
     FM020400 25006KT P6SM OVC035
     FM021100 27009KT P6SM SCT250=

USA.gov is the U.S. government's official web portal to all federal, state and local government web resources and services.